2019-038V (44405 NORAD) Tracking and Keplerian Element Data

This shows tracking and keplerian element data for the satellite.

Feedback or suggestion? Click here.




ElementValue
Catalog44405
Name2019-038V
Epoch Orbit182
Epoch Day198.54475127
Epoch Year2019
RAAN160.2609
Inclination97.4873
Eccentricity0.0024168
Argument of Perigee200.4226
Mean Anonmoly159.604
Mean Motion15.11835495
Decay Rate5.33E-06
L11 44405U 19038V 19198.54475127 .00000533 00000-0 34782-4 0 9990
L22 44405 97.4873 160.2609 0024168 200.4226 159.6040 15.11835495 1826

Live tracking and technical data element details for 2019-038V (NORAD 44405). 2019-038V can be tracked NOW for your location showing map with azimuth and elevation plus other details from your city location.

Track the satellite on the map from your city or location and see movement details for azimuth, elevation, latitude, longitude, range, height, and movement on the map or in text.







IsCatalogInMostPopularTable: catalog: 44405, numindb: 2
Update: records affected: 1



GetName: 44405 2019-038V

Hit Count: updated at: Fri, 19 Jul 2019 07:56:14 GMT